Location: Hains Lake
(37.8540°N, 99.8578°W)
Time: 18:33:59
(UTC+00:00)

Transit 4A - Visible Passes

Search period start: 19 April 2021 00:00
Search period end: 29 April 2021 00:00
Orbit: 869 x 975 km, 66.8° (Epoch: 18 April)

Date Brightness Start Highest point End Pass type
(mag) Time Alt. Az. Time Alt. Az. Time Alt. Az.
19 Apr 9.9 06:01:26 20° NNE 06:01:26 20° NNE 06:03:13 10° NNE visible
19 Apr 9.9 07:44:54 20° NW 07:44:54 20° NW 07:48:27 10° N visible
20 Apr 9.7 06:10:02 26° NNE 06:10:02 26° NNE 06:12:31 10° NNE visible
20 Apr 10.1 07:53:30 14° NW 07:53:43 14° NW 07:56:57 10° N visible
21 Apr 9.5 06:18:34 30° N 06:18:34 30° N 06:21:43 10° NNE visible
21 Apr 10.4 08:03:21 10° NW 08:03:33 10° NW 08:03:45 10° NW visible
22 Apr 10.0 04:43:34 14° NE 04:43:34 14° NE 04:44:28 10° NE visible
22 Apr 9.5 06:27:02 30° NNW 06:27:02 30° NNW 06:30:47 10° NNE visible
23 Apr 9.6 04:51:56 22° NE 04:51:56 22° NE 04:54:04 10° NE visible
23 Apr 9.7 06:35:23 25° NW 06:35:23 25° NW 06:39:42 10° N visible
24 Apr 9.1 05:00:09 34° NNE 05:00:09 34° NNE 05:03:28 10° NNE visible
24 Apr 10.0 06:43:36 17° NW 06:44:23 18° NW 06:48:25 10° N visible
25 Apr 10.0 03:24:47 10° ENE 03:24:47 10° ENE 03:24:55 10° ENE visible
25 Apr 8.6 05:08:12 49° N 05:08:12 49° N 05:12:43 10° NNE visible
25 Apr 10.4 06:51:37 10° WNW 06:54:07 13° NW 06:56:42 10° NNW visible
26 Apr 9.3 03:32:35 21° ENE 03:32:35 21° ENE 03:35:05 10° NE visible
26 Apr 8.8 05:15:59 45° WNW 05:16:02 45° WNW 05:21:52 10° NNE visible
27 Apr 8.4 03:39:59 41° E 03:39:59 41° E 03:44:49 10° NE visible
27 Apr 9.4 05:23:21 25° W 05:25:30 31° NW 05:30:53 10° N visible
28 Apr 7.8 03:46:34 47° S 03:48:15 66° ESE 03:54:20 10° NNE visible
28 Apr 10.0 05:30:22 10° W 05:35:05 22° NW 05:39:45 10° N visible
